Location: Unnamed
(42.1164°N, 2.7652°E)
Time: 20:38:55
(UTC+02:00)

ISS - Pass Details

Date: 08 May 2021
Orbit: 417 x 422 km, 51.6° (Epoch: 14 June)

Event Time Altitude Azimuth Distance (km) Brightness Sun altitude
Exits shadow 04:20:35 10° 311° (NW) 1,535 -0.9 -20.8°
Reaches altitude 10° 04:20:41 10° 312° (NW) 1,508 -0.9 -20.8°
Maximum altitude 04:22:57 17° 355° (N) 1,168 -1.0 -20.5°
Drops below altitude 10° 04:25:14 10° 37° (NE) 1,511 0.3 -20.2°
Sets 04:27:54 0° 59° (ENE) 2,377 1.4 -19.9°
